RH
26 30 27 31 54 59 58 56 53 44 36 34 38 41 41 40 41 43 42 36 47 66 73 74 61 56 40 18 12 10 12 24 23 28 22 10 11 9 8 10 11 14 16
16 16 22 22 22 38 56 57 60 60 56 48 43 41 42 43 43 42 46 47 38 49 68 69 68 52 53 40 21 12 9 10 19 26 27 12 11 10 8 9 11 14 14
16 17 19 19 21 25 48 64 57 58 63 64 60 55 47 45 44 44 44 48 51 44 39 50 50 51 44 50 39 25 14 9 9 13 25 25 10 12 9 9 10 12 14
14 15 17 20 19 22 22 29 40 53 58 64 67 60 62 57 51 49 49 49 50 50 49 48 43 41 42 41 49 41 30 21 12 9 13 22 19 9 12 10 9 12 14
15 14 14 14 15 16 18 20 22 22 32 54 66 68 64 66 63 59 59 58 56 57 55 57 53 52 47 42 41 50 46 37 28 18 10 11 18 16 10 11 10 11 13
16 16 16 16 16 15 15 14 16 17 20 29 54 69 72 69 66 69 68 66 66 66 58 54 55 57 58 56 49 44 48 52 46 35 26 12 11 18 16 9 10 11 13
17 18 17 17 16 16 16 16 16 16 17 24 42 60 71 72 70 72 72 75 69 66 65 64 64 59 62 61 60 54 49 47 52 54 44 34 19 9 9 15 10 10 11
17 17 17 17 17 17 16 16 15 14 15 17 20 28 42 66 65 66 79 82 82 78 74 73 71 69 70 69 61 63 62 55 52 50 55 53 41 30 15 8 9 10 10
18 18 19 18 18 18 18 17 16 16 15 14 15 15 16 18 40 32 40 55 66 69 76 76 76 73 74 72 74 74 68 65 64 59 55 53 57 51 41 24 10 8 10
18 20 20 21 21 21 21 19 18 18 17 16 15 15 15 15 18 18 14 18 54 48 56 68 81 80 77 79 77 77 76 74 70 69 68 65 59 59 57 48 34 14 9
21 21 23 22 23 24 24 23 23 22 21 20 19 18 17 16 15 15 15 15 14 17 24 45 68 72 73 80 82 80 74 68 76 73 70 72 71 67 63 60 54 40 19
23 24 26 26 26 26 22 19 21 22 21 21 21 22 22 22 23 22 22 22 20 18 16 16 24 57 44 35 58 59 59 54 64 66 72 72 69 74 75 70 64 58 45
17 17 18 20 23 21 15 11 9 8 7 7 7 6 6 6 6 7 7 8 11 15 20 22 21 20 19 20 20 28 30 36 50 59 72 75 75 72 80 77 75 70 64
14 16 13 13 14 12 11 9 7 7 6 7 7 7 6 6 6 6 6 6 6 6 6 6 8 11 14 18 28 86 72 59 66 66 69 73 81 78 79 78 78 82 76
7 8 8 10 11 10 9 8 7 7 8 8 8 8 8 8 8 8 9 9 9 9 9 9 8 8 7 7 8 10 20 59 72 78 70 85 79 76 75 84 87 86 84
10 9 8 8 8 9 9 8 8 8 8 8 9 9 9 9 10 10 11 11 11 11 11 11 11 11 10 10 10 9 8 10 16 58 79 78 70 78 78 77 74 92 94
11 14 13 11 9 9 9 9 10 10 10 9 9 10 10 11 11 11 11 11 11 12 12 12 12 12 12 12 11 10 10 9 9 28 45 63 72 80 78 73 80 74 76
18 11 13 16 14 12 13 13 12 11 10 11 12 12 12 12 12 12 12 13 16 19 21 24 24 24 23 22 21 21 18 14 11 10 10 17 49 66 69 78 75 76 80
16 20 22 20 20 18 17 14 13 12 12 13 14 14 14 14 13 15 21 25 26 24 19 20 21 22 22 27 29 28 27 28 29 25 15 11 10 15 40 54 67 76 73
23 35 39 34 31 31 20 17 14 14 15 17 17 16 16 17 20 26 26 24 16 24 26 26 27 27 27 29 29 27 26 24 20 28 34 32 24 14 13 15 42 58 68
17 29 44 43 41 36 26 19 16 19 21 22 24 26 27 29 29 26 23 16 24 16 23 16 17 29 31 28 25 23 21 23 35 33 26 34 39 37 31 19 14 14 26
34 37 45 46 42 31 26 29 36 32 36 33 36 40 38 33 24 18 16 17 20 17 22 20 10 23 31 28 25 23 21 19 20 34 39 34 36 41 39 37 29 18 13
42 41 35 35 41 50 62 59 56 49 31 26 26 23 19 13 10 14 15 20 21 18 12 10 9 30 31 26 25 27 25 23 18 20 36 47 46 46 49 50 47 44 38
40 43 50 54 51 49 50 52 49 38 22 14 14 12 8 6 9 11 12 18 18 16 12 10 9 27 31 30 28 28 31 35 34 22 24 40 54 57 58 59 57 58 56
26 23 29 38 38 36 32 31 30 23 17 14 12 10 6 6 6 6 13 17 12 10 12 12 11 12 19 22 30 33 30 34 46 46 29 39 46 49 48 50 54 55 59
30 30 29 25 24 29 29 24 19 15 12 10 9 9 6 6 6 6 7 9 10 11 12 13 13 12 11 11 16 29 38 37 37 38 36 29 26 36 49 53 52 49 47
Wind_Speed
1 3 3 4 4 3 3 3 2 3 4 4 5 4 5 5 5 5 6 6 5 4 4 7 10 11 13 13 12 10 8 6 5 4 6 4 1 2 2 4 3 3 1
4 5 4 5 6 7 7 6 4 5 5 5 5 5 5 5 5 5 5 6 6 5 4 5 8 10 11 12 13 13 11 8 6 5 5 6 5 3 3 4 4 4 3
8 5 7 7 7 7 6 8 8 7 7 7 6 6 6 6 6 6 5 6 6 6 7 6 7 8 10 11 11 12 12 11 9 6 5 6 5 5 4 4 5 5 4
10 9 8 9 10 10 9 9 10 11 10 9 9 8 8 8 7 6 6 6 7 8 7 7 7 7 8 9 10 11 11 12 12 10 7 2 6 5 6 6 6 5 6
11 11 12 12 13 13 13 13 13 11 12 12 12 11 11 10 10 9 8 8 8 8 9 8 8 9 9 9 9 9 10 11 12 12 11 8 5 6 6 8 8 7 8
11 13 14 15 16 16 16 16 16 15 14 13 14 14 13 12 13 13 11 11 10 10 11 11 10 11 10 10 9 8 9 10 10 11 11 11 8 7 7 8 8 9 10
13 16 17 17 17 17 18 18 18 17 17 16 14 15 16 15 14 15 17 14 13 13 14 14 14 13 13 12 12 12 11 11 11 9 9 9 10 9 8 8 9 9 10
18 17 18 19 18 18 18 18 18 19 19 18 19 18 18 18 17 19 18 17 16 16 16 16 16 15 14 15 14 14 14 14 14 13 11 10 10 10 10 10 10 10 10
22 21 21 20 20 19 18 18 19 19 19 19 19 19 19 20 21 20 23 22 20 19 20 20 19 20 18 16 15 15 16 16 16 17 16 13 12 13 12 11 11 11 12
23 23 23 24 23 23 23 20 20 19 20 20 19 20 19 18 19 21 21 21 21 20 22 22 19 19 20 18 18 18 18 18 18 19 19 18 15 14 14 13 12 11 12
25 24 24 24 25 25 27 22 22 21 21 21 21 21 21 21 21 19 19 20 21 23 24 24 24 25 26 25 24 24 24 22 22 22 22 21 20 17 16 16 15 13 12
28 25 24 25 26 26 27 26 25 24 23 23 23 23 23 22 23 24 22 23 23 24 24 25 26 27 30 31 33 33 33 31 28 26 25 25 24 22 20 18 17 16 15
30 29 27 26 26 26 26 26 25 24 23 22 22 22 22 22 23 23 24 25 25 26 27 27 28 29 30 29 29 30 30 31 30 28 28 26 26 25 24 23 20 18 18
31 32 32 29 29 28 26 25 24 23 24 23 23 23 23 23 23 24 24 25 26 27 27 28 30 32 33 32 32 28 31 30 29 29 30 28 27 27 26 26 25 23 22
31 33 33 30 29 28 27 26 25 25 24 25 25 25 26 26 25 25 26 27 28 29 30 31 31 33 33 33 34 35 36 34 33 32 31 31 30 30 29 28 26 27 27
33 34 32 33 32 31 29 27 27 26 26 26 26 27 28 28 28 27 28 29 30 32 32 33 35 36 37 37 37 35 36 37 37 35 33 33 32 33 33 31 29 29 30
36 36 35 34 32 32 30 29 28 27 27 26 26 26 27 28 29 29 29 29 30 31 31 32 33 35 37 39 41 41 39 38 39 38 38 37 37 36 36 37 35 33 34
31 33 36 34 30 31 30 28 27 27 27 26 26 26 27 29 30 29 28 26 26 26 28 30 31 33 35 36 37 39 41 42 42 41 43 43 41 40 39 38 37 37 34
34 34 35 33 31 31 30 30 28 26 25 26 26 27 28 28 28 26 24 23 23 23 27 30 32 35 35 36 36 36 35 37 40 43 45 44 44 46 44 44 43 40 40
34 35 34 37 31 29 29 28 27 26 25 25 25 26 27 26 25 23 21 20 21 25 27 28 31 32 34 35 38 41 42 42 40 39 41 41 41 43 43 46 48 47 44
32 37 36 35 36 31 26 24 23 23 24 24 24 25 24 23 22 21 20 19 22 22 21 21 25 28 29 32 34 34 36 37 40 41 39 38 39 39 40 43 46 49 52
20 27 33 34 34 25 22 18 17 18 20 22 23 23 22 21 21 20 19 20 20 20 22 26 28 30 27 26 30 34 35 33 35 35 37 38 38 39 41 43 45 48 50
20 17 18 17 15 15 16 16 16 16 16 19 21 20 20 20 19 18 20 20 20 22 24 25 25 26 23 19 21 25 28 29 28 27 29 32 33 34 34 36 38 40 43
21 19 12 12 11 11 13 16 18 17 16 17 18 19 20 19 18 20 20 20 21 23 24 22 21 21 18 16 15 18 20 23 23 20 20 22 28 30 31 32 35 36 37
20 20 18 16 13 12 13 14 16 18 18 18 18 18 18 17 18 19 20 22 22 22 22 20 20 20 21 20 17 15 16 17 19 23 17 12 15 20 26 29 31 33 35
16 18 18 18 18 17 15 16 17 18 20 20 19 19 18 17 18 19 19 19 20 21 21 20 20 20 21 21 20 19 19 18 17 21 25 21 18 13 18 21 24 28 31
Wind_Direction
1 258 276 271 270 271 281 297 331 336 346 3 12 8 14 20 21 23 19 21 26 21 16 10 14 17 19 17 19 20 6 350 321 307 313 312 278 193 219 240 230 245 271
2 355 301 292 284 274 273 283 292 305 315 328 340 345 343 352 353 355 356 357 359 4 353 359 358 3 8 13 13 15 16 4 346 326 305 311 302 269 218 234 254 253 261
327 333 302 301 297 299 277 280 287 288 298 303 308 312 320 325 331 331 333 338 339 343 337 343 345 352 357 360 7 10 10 10 6 1 332 312 313 290 274 260 251 262 278
312 315 300 295 296 294 291 284 282 285 282 283 286 294 298 303 306 305 309 315 319 322 327 333 333 340 344 348 354 359 3 5 5 6 12 330 306 304 298 282 273 270 266
314 305 303 295 291 290 290 290 288 282 277 276 282 285 289 290 291 293 300 299 302 306 314 319 322 325 328 331 339 345 350 356 358 1 357 17 311 323 308 294 287 270 267
313 305 301 297 295 294 292 290 290 291 288 280 275 274 277 279 286 289 286 287 293 295 303 306 310 312 312 313 319 325 330 337 348 349 353 354 341 318 310 299 293 286 276
308 300 297 294 292 291 291 290 289 287 285 280 274 274 276 272 282 282 284 280 281 287 291 297 301 303 302 309 313 316 318 319 322 330 337 342 334 333 323 308 298 287 281
304 299 298 294 291 289 288 288 289 288 285 280 275 275 272 275 271 273 275 278 282 285 286 289 293 295 299 302 304 307 309 310 312 313 315 322 324 326 326 320 303 294 284
300 301 299 296 296 294 290 287 289 290 288 286 286 287 280 275 269 276 276 274 279 283 284 283 283 283 284 287 292 301 303 304 306 305 307 309 312 313 318 320 313 301 291
294 297 297 297 296 293 288 291 288 284 284 285 286 287 286 284 277 277 284 276 267 270 273 277 281 281 284 283 287 292 292 295 298 297 298 300 300 300 305 308 310 308 299
294 295 294 291 291 290 289 287 281 281 283 282 282 282 282 282 282 281 280 278 276 274 270 268 272 276 275 279 280 280 281 282 283 287 290 292 293 290 292 294 296 297 294
294 292 288 288 287 287 287 287 284 283 279 279 280 278 280 281 280 280 278 276 276 274 273 273 266 265 269 270 270 273 276 275 273 277 277 280 282 285 284 282 285 288 289
291 291 287 285 286 285 285 283 284 284 282 281 279 280 278 275 274 275 276 275 273 272 271 271 270 268 271 272 270 271 273 271 269 270 268 270 272 273 276 278 277 275 277
286 287 285 287 284 282 278 276 277 278 279 279 279 279 277 276 275 275 275 275 275 275 274 272 270 270 271 271 270 262 267 268 269 267 268 266 264 268 269 271 275 275 276
287 284 286 285 280 276 272 270 271 271 272 275 276 276 277 277 277 277 277 278 278 278 278 277 275 272 270 269 268 267 267 265 265 264 265 268 266 268 267 265 270 272 273
286 286 285 280 278 276 273 271 268 268 269 271 274 277 279 280 281 282 282 282 282 280 280 279 277 277 276 275 271 266 265 266 264 261 260 262 267 272 273 272 268 266 267
283 280 280 280 279 275 271 269 268 269 271 271 273 274 278 281 283 282 282 281 281 281 281 280 278 276 275 274 274 272 268 263 262 260 256 255 255 258 266 267 267 268 268
290 282 278 276 275 274 273 273 275 276 276 278 277 279 281 282 284 286 287 288 288 290 291 291 290 287 283 279 276 275 273 270 264 260 258 255 251 253 255 260 263 265 266
300 294 290 285 277 274 276 275 275 276 276 278 281 283 285 286 286 289 290 293 296 298 301 299 296 291 286 283 280 277 276 275 274 270 263 257 256 253 251 252 254 261 265
297 291 288 288 286 283 274 276 277 278 278 279 281 282 282 283 285 288 291 295 303 308 307 304 300 294 290 285 278 275 275 274 271 268 269 267 262 258 258 255 254 254 255
302 291 283 286 289 287 269 266 271 278 282 283 282 281 280 281 283 286 290 298 304 310 316 320 320 309 294 286 283 279 276 274 269 265 264 266 265 259 253 253 253 252 252
302 297 288 288 291 284 271 269 268 270 279 283 286 286 285 283 283 284 289 295 301 312 313 321 324 322 309 298 290 286 284 276 274 266 263 262 262 259 257 255 251 249 250
0 347 331 317 304 298 297 288 284 278 279 279 282 283 282 283 281 282 288 294 293 311 315 319 326 327 324 313 302 297 297 296 288 273 267 262 260 261 261 258 258 256 255
355 343 338 331 321 317 312 304 298 290 287 284 282 284 285 283 282 286 284 295 297 304 313 318 324 330 339 337 333 318 314 311 305 298 277 274 274 269 264 260 259 258 258
350 353 346 338 330 321 315 306 300 300 300 293 287 287 286 284 285 287 286 291 297 303 304 314 321 327 334 343 345 336 328 320 312 305 312 289 265 263 267 265 265 265 265
327 327 327 325 324 320 311 303 301 304 302 298 292 290 289 287 290 289 294 294 298 298 305 314 320 323 329 332 335 335 332 327 316 309 308 309 298 270 263 266 268 267 265